星链-6375 (STARLINK-6375 )

导读

STARLINK-6375是美国太空探索技术公司(SpaceX)“星链”星座中的一颗卫星,于2023年7月16日发射升空。它依托猎鹰9号运载火箭入轨,主要服务于全球卫星互联网组网,为偏远地区、海上、航空等场景提供低延迟宽带网络服务,属于星链项目扩容阶段的批量部署卫星之一,进一步完善了星链低轨卫星互联网的覆盖能力。

Basic Information
目录编号:
57342
目录名称:
STARLINK-6375
国际标识:
2023-099Q
轨道中心:
EARTH
卫星名称:
星链-6375
卫星全名:
星链-6375 (STARLINK-6375 )
卫星状态:
在轨 (已飞行1146 天)
发射日期:
2023-07-16 UTC
国别 :
美国 (US)
星等 :
--
Orbit Information
数据来源 国际轨道数据
星历时间: 2026-09-04T13:58:31+0800
6小时前
查看轨道信息
半长轴: 6861.195km
偏心率: 0.0001303
轨道倾角: 43.003°
近地点辐角 277.345°
升交点赤经 320.681°
平近点角 82.725°
近地点: 482.163km
远地点: 483.953km
周期: 94.267分钟
每日圈数: 15.275771
Detailed Information
固有亮度:
5
最大亮度:
2.5
卫星平台:
Starlink v1.5
覆盖范围:
全球
运营商:
太空探索技术公司
运营商所在国:
美国
制造商(研发单位):
太空探索技术公司
制造商所在国:
美国
使用方式:
暂无
Satellite Introduction
星链(Starlink)计划是由太空探索技术公司(SpaceX)提出的一个巨型低轨卫星互联网星座项目,计划在2019年至2024年间在太空搭建由约1.2万颗卫星组成的“星链”网络,其中1584颗将部署在地球上空550千米处的近地轨道,并从2020年开始工作。该卫星仍在工作。
2D Orbit Map
3D Orbit Map
Orbit Altitude Analysis Chart
Orbit Inclination Analysis Chart
Orbit Comprehensive Analysis Chart
View Comprehensive Chart
Conjunction Data List
Event ID Objects TCA Miss Dist (km) Collision Risk Probability Collision Risk Index (CRI) Action
CDM_260905-023805-734206-391221
2026-09-05T
02:38:39+0000
0.307 km
远距离
3.339798E-4 高风险 0.85
CDM_260906-220505-734206-656721
2026-09-06T
22:05:49+0000
0.634 km
远距离
7.477949E-5 中风险 0.72
CDM_260904-053005-734206-471721
2026-09-04T
05:30:04+0000
1.191 km
极远距离
1.103904E-5 中风险 0.56
CDM_260904-075105-734206-471721
2026-09-04T
07:51:22+0000
1.287 km
极远距离
8.450998E-6 低风险 0.54
CDM_260906-203105-734206-656721
2026-09-06T
20:31:40+0000
1.317 km
极远距离
6.701152E-6 低风险 0.52
CDM_260904-092505-734206-471721
2026-09-04T
09:25:34+0000
1.787 km
极远距离
2.974974E-6 低风险 0.44
CDM_260905-041205-734206-391221
2026-09-05T
04:12:49+0000
2.426 km
极远距离
1.110584E-6 低风险 0.36
CDM_260905-010405-734206-391221
2026-09-05T
01:04:30+0000
2.670 km
极远距离
9.516238E-7 极低风险 0.35